Theta_e
299 299 296 298 297 297 298 299 300 303 304 302 302 302 302 301 301 301 301 303 306 305 303 303 301 303 300 299 303 305 306 307 308 310 310 310 312 314
299 298 297 297 296 296 297 299 299 300 302 301 302 302 302 302 302 301 301 302 304 304 304 302 304 303 301 301 299 300 304 304 305 307 308 309 309 309
299 299 298 298 297 296 296 297 298 299 300 300 300 301 302 301 301 301 301 304 304 304 304 303 301 301 302 301 301 298 297 302 303 304 305 306 307 309
298 298 299 298 298 297 297 297 297 298 298 299 299 300 301 300 301 302 301 301 303 303 303 304 304 299 301 302 301 299 297 296 297 302 303 305 305 306
297 298 298 298 298 298 297 297 297 297 297 298 299 299 300 300 300 301 301 301 301 300 302 301 302 302 301 302 300 299 299 298 297 298 303 304 305 305
294 295 296 298 298 298 298 298 297 297 297 298 298 299 299 299 300 300 300 301 301 301 301 302 301 301 300 300 301 300 298 299 301 300 301 303 303 304
295 295 295 296 298 298 299 298 297 298 297 297 298 299 299 299 299 299 300 300 300 300 300 300 299 299 299 299 300 300 299 298 300 301 301 301 302 303
293 295 294 295 296 298 298 297 297 298 298 298 298 298 299 299 299 299 298 297 296 298 298 299 300 299 299 299 300 300 298 298 298 300 299 299 299 300
293 294 295 294 294 295 296 296 297 297 297 296 298 298 298 298 298 297 296 295 295 295 294 294 296 297 298 299 299 297 296 298 297 297 297 297 298 299
293 294 293 294 294 292 292 292 292 293 294 294 294 295 297 297 297 297 296 295 294 294 293 293 294 295 296 296 296 296 296 295 296 296 295 296 297 297
291 292 294 294 294 292 291 290 290 290 291 292 293 292 293 293 295 295 294 293 292 292 293 293 293 294 294 295 295 294 294 294 295 295 295 295 295 296
291 291 291 292 293 294 291 291 290 290 291 290 290 290 290 290 291 293 293 292 292 292 293 291 292 293 293 294 294 293 293 294 293 293 293 293 293 293
291 291 291 291 291 291 291 291 291 291 291 291 291 291 290 289 289 289 290 290 291 292 293 292 292 292 292 293 292 292 292 292 291 291 291 291 292 292
291 291 291 291 291 290 290 290 291 290 290 290 291 291 290 290 290 290 290 289 290 290 291 291 291 291 291 292 293 293 292 292 292 291 290 291 292 292
291 291 291 291 291 291 291 291 291 290 290 290 290 290 290 289 289 290 291 290 289 290 290 290 291 291 290 290 292 293 293 292 292 292 291 291 291 291
291 291 291 291 291 291 291 291 290 291 291 290 291 291 290 289 289 289 289 290 290 291 290 290 290 291 291 291 292 291 291 292 291 291 291 290 290 291
291 291 291 290 290 290 290 290 290 290 290 290 290 290 290 290 290 290 289 289 290 290 290 290 290 289 289 290 290 291 291 291 291 291 290 290 290 290
291 291 291 290 290 290 290 290 290 290 290 289 290 289 290 290 290 290 290 290 290 290 289 289 289 289 289 290 290 289 290 290 290 289 289 289 289 289
290 290 290 290 290 290 290 289 289 289 289 289 290 290 289 289 290 290 290 290 291 290 290 290 289 289 290 290 290 290 289 289 289 288 288 289 289 290
290 290 290 290 290 290 290 290 289 289 289 289 290 290 289 289 290 290 290 290 290 290 289 290 290 290 289 289 289 289 289 289 289 289 289 289 289 289
289 290 290 290 290 290 290 290 289 289 289 289 289 290 290 290 290 290 290 290 290 290 290 290 289 289 289 289 289 289 290 290 289 288 288 288 288 289
289 289 289 289 290 290 290 290 290 289 289 288 289 289 290 290 290 291 291 291 290 290 290 290 290 290 290 290 290 290 291 290 290 290 289 288 288 290
289 289 289 289 289 289 290 290 290 289 289 288 288 289 289 290 291 291 292 292 292 291 291 291 291 291 290 290 290 290 290 290 290 290 289 289 289 289
Wind_Speed
7 8 9 6 10 12 11 13 9 5 6 12 7 11 16 16 16 13 13 18 16 14 12 11 10 9 8 9 8 7 8 8 9 9 12 14 17 16
3 4 4 6 9 13 12 14 14 10 5 10 14 8 12 12 15 16 16 18 20 15 13 13 11 10 9 9 11 11 9 11 13 12 13 14 17 18
4 3 5 8 10 10 13 14 12 13 8 13 14 13 16 18 16 16 17 16 19 17 15 15 14 13 11 12 12 13 15 13 14 15 16 18 17 17
10 8 7 5 7 13 11 12 14 15 14 13 18 13 13 15 19 23 19 17 19 19 21 19 16 15 14 14 15 15 16 18 19 17 18 19 20 19
14 13 12 6 7 7 10 14 14 14 15 17 17 18 16 11 16 24 18 22 17 19 22 20 18 17 17 17 18 18 17 18 20 20 18 17 20 22
14 12 13 13 11 8 10 12 12 13 14 15 16 17 17 17 16 14 19 18 18 16 16 14 15 17 19 20 18 19 19 17 16 20 20 20 21 23
16 16 13 11 13 10 8 8 12 13 12 13 15 14 15 14 11 15 18 18 16 17 17 15 15 19 22 22 21 18 20 14 15 17 20 23 22 24
19 20 17 15 11 9 1 4 10 12 10 9 12 14 13 11 14 13 10 3 2 19 18 19 18 18 17 18 18 16 15 14 16 18 21 23 24 24
27 18 18 18 14 8 6 6 9 9 7 7 12 17 16 19 17 15 12 10 10 9 9 11 20 17 20 18 19 19 18 16 15 17 19 21 21 23
21 22 16 16 16 13 8 8 7 7 11 10 8 7 6 9 12 15 18 21 21 22 18 8 17 17 17 16 17 19 20 18 13 16 18 17 17 20
17 21 21 15 16 15 12 10 10 10 8 8 8 8 7 7 3 13 15 12 7 11 19 14 15 13 14 18 22 24 21 21 17 16 19 20 19 22
15 16 19 20 18 15 14 13 12 11 11 12 11 10 9 8 3 6 11 12 8 4 16 14 12 10 5 17 21 24 22 19 18 20 18 18 18 20
15 16 16 16 16 16 13 12 10 9 9 8 8 8 8 9 7 5 4 9 10 9 7 15 8 12 10 5 6 12 15 19 17 18 17 17 17 15
14 14 15 16 14 13 13 12 10 8 7 7 6 7 8 8 8 6 5 3 5 11 13 15 6 12 6 7 8 10 15 16 16 17 15 16 17 19
14 14 14 14 14 14 14 14 12 11 10 9 8 7 8 8 7 7 9 7 6 5 4 7 13 13 13 9 7 9 11 14 17 19 17 16 17 18
17 14 14 14 13 13 14 14 13 14 14 14 15 15 10 8 8 7 8 8 10 8 5 7 8 9 12 14 14 14 14 9 7 13 17 17 18 18
14 13 14 16 16 16 15 14 14 14 12 13 13 13 12 12 11 9 9 10 10 9 8 8 9 11 14 15 15 16 16 17 16 16 15 16 19 18
14 15 16 17 16 16 16 15 15 15 14 15 13 14 13 12 10 10 9 9 9 9 9 10 11 13 14 18 20 18 16 16 14 16 16 16 17 16
17 17 16 16 17 17 16 16 16 16 15 14 14 13 13 11 11 10 9 9 9 9 10 10 10 10 6 7 11 16 17 16 15 16 18 18 18 16
19 18 18 18 17 17 17 17 17 17 16 15 14 15 14 14 11 10 10 10 10 10 10 10 10 11 8 6 6 14 14 19 16 17 17 18 19 17
20 19 19 19 18 18 18 18 18 17 16 16 15 14 15 15 13 12 12 11 11 10 10 10 11 12 15 16 7 14 15 15 19 21 16 15 14 14
19 20 20 19 19 19 19 18 18 17 17 16 16 15 14 14 15 16 16 14 14 14 13 15 14 13 13 13 11 14 14 14 15 18 21 19 12 3
19 19 20 21 21 20 20 19 18 17 17 17 17 16 15 14 16 16 16 17 15 16 16 14 14 12 11 10 12 11 13 13 12 13 14 16 20 20
Wind_Direction
251 243 234 252 261 262 265 268 279 269 272 266 236 232 222 217 221 223 233 222 203 197 195 198 202 202 215 232 243 254 266 268 260 250 247 245 253 255
258 292 239 250 255 259 264 256 277 275 271 275 273 267 268 245 235 221 234 229 206 200 202 207 202 214 225 235 245 254 262 269 273 272 268 260 255 260
294 272 249 249 239 250 257 261 275 274 282 276 256 257 255 260 239 225 227 203 206 207 212 216 220 223 231 241 248 257 264 270 274 276 277 274 270 262
360 337 304 242 249 239 243 243 246 254 255 260 267 259 244 239 237 257 220 224 212 220 216 216 222 230 236 240 249 254 265 272 275 277 274 276 275 273
346 342 320 294 255 240 248 248 243 251 254 254 262 267 264 249 248 261 224 231 226 228 226 228 228 236 243 245 251 259 263 271 282 281 279 277 280 278
2 338 317 336 300 287 237 232 235 243 256 268 253 258 257 256 252 260 259 241 235 235 229 229 241 245 250 256 255 258 266 267 268 277 283 286 284 281
5 11 351 315 331 307 296 270 256 231 235 252 266 263 250 244 244 249 251 241 236 237 240 236 247 246 252 259 259 251 262 264 266 268 276 281 284 287
5 359 13 9 337 350 342 322 252 258 231 239 249 253 269 245 238 235 247 259 289 244 239 239 236 249 250 250 247 244 247 264 272 268 269 275 283 289
17 7 12 16 12 3 25 36 42 61 19 322 284 256 251 245 239 233 234 227 237 252 233 264 254 251 247 240 250 253 259 262 266 268 272 274 287 292
19 16 19 19 27 28 29 26 24 33 25 16 26 18 271 258 248 249 250 252 259 257 255 252 265 254 248 242 244 248 255 257 270 274 275 274 286 297
19 19 24 23 41 37 38 35 34 20 0 354 357 1 329 15 341 249 232 215 222 234 243 228 248 245 245 251 256 260 265 266 260 265 270 279 290 297
18 17 18 19 18 29 31 28 24 13 11 16 21 14 16 15 337 233 243 221 224 221 240 204 223 236 277 266 271 263 254 250 258 266 272 276 283 292
9 9 12 8 11 15 17 12 3 353 355 358 3 6 7 7 14 6 302 252 251 253 251 217 224 225 227 254 244 250 244 255 256 264 268 270 278 287
3 2 359 2 4 7 9 1 351 345 343 340 340 346 342 342 335 358 2 337 289 261 258 238 231 219 230 250 244 246 247 261 266 265 268 275 279 281
351 349 354 360 2 360 360 1 2 0 348 343 333 334 328 322 323 315 308 315 322 300 291 250 238 250 257 252 270 270 262 257 254 257 272 271 276 278
349 350 356 359 2 2 0 360 0 356 354 350 343 344 331 322 317 315 309 313 289 266 249 258 262 255 257 256 256 264 267 249 252 255 262 267 275 274
337 354 6 1 360 358 356 355 357 356 349 339 337 336 335 332 329 330 312 306 291 296 289 255 256 260 262 266 270 263 264 263 262 269 274 275 275 279
6 6 5 360 358 353 348 347 350 349 344 346 340 339 335 329 320 320 312 306 303 305 306 298 299 291 276 262 250 253 263 270 267 267 268 268 270 272
14 7 2 358 352 352 350 347 343 341 342 341 339 343 345 337 334 322 317 310 293 282 280 281 281 283 277 276 291 245 248 263 265 260 263 261 264 266
9 4 358 357 354 350 347 345 341 341 341 339 348 352 356 347 344 342 333 326 323 317 304 299 282 278 274 285 292 279 267 259 256 261 260 260 265 273
359 358 356 354 355 350 347 344 343 344 345 345 345 346 347 357 344 342 335 334 330 315 306 303 295 290 284 282 261 268 279 270 262 256 264 269 267 270
358 353 351 351 351 350 348 346 346 346 346 345 344 347 350 347 344 344 342 335 334 329 317 314 310 299 285 269 273 282 290 292 283 273 260 254 248 265
355 353 350 348 348 348 350 348 346 345 346 349 345 345 347 348 354 3 350 352 350 343 339 329 336 338 310 295 295 292 303 310 308 295 280 266 258 254